Weather Roundup
Issued by NWS Springfield, MO

Home | Current Version | Previous Version | Text Only | Print | Product List | Glossary On
Versions: 1 2 3 4 5 6 7 8 9 10 11 12 13 14 15 16 17 18 19 20 21 22 23 24 25 26 27 28 29 30 31 32 33 34 35 36 37 38 39 40 41 42 43 44 45 46 47 48 49 50
000
NZUS99 KSGF 221757
HRRSGF

HOURLY WEATHER
NATIONAL WEATHER SERVICE SPRINGFIELD MO
1200 PM CST MON JAN 22 2018

......SGF CWA......

CITY           SKY/WX    TMP DP  RH WIND       PRES   REMARKS
SPRINGFIELD    CLOUDY    41  29  62 SW17G35   29.61F
6HR MIN TEMP:  39; 6HR MAX TEMP:  44;

JOPLIN         CLOUDY    42  29  59 SW25G37   29.61F
6HR MIN TEMP:  37; 6HR MAX TEMP:  42;

WEST PLAINS    SUNNY     50  30  46 SW14G26   29.63F
6HR MIN TEMP:  47; 6HR MAX TEMP:  52;

ROLLA          MOSUNNY   48  33  56 SW20G29   29.56F
6HR MIN TEMP:  47; 6HR MAX TEMP:  51;

BRANSON        PTSUNNY   43  27  52 SW20G31   29.69S

......SURROUNDING SGF CWA......

CITY           SKY/WX    TMP DP  RH WIND       PRES   REMARKS
CHANUTE        NOT AVBL
PARSONS        LGT RAIN  40  33  76 W16G30    29.63R WCI  31
COFFEYVILLE    CLOUDY    43  31  62 W22G33    29.65R
EMPORIA        CLOUDY    34  32  92 W20G29    29.54S WCI  23
HARRISON AR    PTSUNNY   46  28  49 W20G28    29.69S

......KANSAS AND MISSOURI......

CITY           SKY/WX    TMP DP  RH WIND       PRES   REMARKS
KANSAS CTY INT CLOUDY    37  34  89 SW12G22   29.42F WCI  29
SEDALIA        CLOUDY    41  32  70 SW21G29   29.52F
ST JOSEPH      LGT RAIN  35  35 100 SW10      29.42F FOG     WCI  27
ST LOUIS       PTSUNNY   60  44  55 S18G28    29.50F
WICHITA        CLOUDY    37  31  78 NW32G44   29.69R WCI  24
TOPEKA         LGT SNOW  35  34  96 W13       29.47S FOG     WCI  26
OLATHE         CLOUDY    36  35  96 SW10G21   29.46S WCI  28

......TENNESSEE......

CITY           SKY/WX    TMP DP  RH WIND       PRES   REMARKS
MEMPHIS        NOT AVBL
NASHVILLE      CLOUDY    56  53  90 S13       29.83F

......ARKANSAS.......

CITY           SKY/WX    TMP DP  RH WIND       PRES   REMARKS
FAYETTEVILLE   CLOUDY    41  29  62 SW15G30   29.74S
FT SMITH       PTSUNNY   51  30  44 W25G36    29.81R
LITTLE ROCK    SUNNY     56  32  40 SW18G24   29.79F

......OKLAHOMA.......

CITY           SKY/WX    TMP DP  RH WIND       PRES   REMARKS
TULSA          CLOUDY    45  28  51 W25G43    29.75R
PONCA CITY     CLOUDY    41  28  60 NW17G35   29.76R
MCALESTER      LGT RAIN  49  25  39 W26G33    29.88S
OKLAHOMA CITY  CLOUDY    43  25  49 NW31G43   29.89R

......IOWA............

CITY           SKY/WX    TMP DP  RH WIND       PRES   REMARKS
DES MOINES     NOT AVBL
QUAD CITIES    PTSUNNY   58  49  72 S20G29    29.41F

......ILLINOIS........

CITY           SKY/WX    TMP DP  RH WIND       PRES   REMARKS
QUINCY         NOT AVBL
CHICAGO        LGT RAIN  51  48  89 S17G28    29.51F FOG




USA.gov is the U.S. government's official web portal to all federal, state and local government web resources and services.